カタログに戻る

NOAA 16 DEB

運用中SSO
NORAD 41284·DEBRIS·🇺🇸 United States

打ち上げ Sep 21, 2000 から Vandenberg Space Force Base

Loading…

次のパス (今後24時間)

TLE

最新Source: Space-Track

元期: Sep 14, 2026, 09:05 UTC

1 41284U 00055GL  26257.37871384  .00001848  00000-0  10773-2 0  9993
2 41284  98.8621 222.3401 0073407 209.9642 149.7316 14.08401776546758

AllMySatでNOAA 16 DEBをリアルタイム追跡

Download on the App Store